Погода в Вэньчжоу

Китай     27°58′51″N   120°39′52″E
темп.,
°C
ветер,
м/с
пор.,
м/с
влажн.,
%
обл.,
%
осадки,
мм/ч
давл.,
гПа
погр.,
м
27 сентября, пн
пн2723:00+23ссв017896 0.0 101555
02:00+22сз118346 0.0 101356
05:00+21сз12875 0.0 101265
08:00+25сз12665 0.0 1014277
11:00+31всв12400 0.0 1012942
14:00+31вюв33465 0.0 10101157
17:00+27вюв34726 0.0 1011611
20:00+25в138415 0.0 1012308
28 сентября, вт
вт2823:00+24св118810 0.1 101386
02:00+24с11896 0.1 101253
05:00+23ссз11915 0.0 101150
08:00+26сз11760 0.0 1012400
11:00+30вюв225430 0.0 10111015
14:00+29вюв435997 0.0 1009985
17:00+27вюв337361 0.0 1009555
20:00+25в127974 0.0 1011280
29 сентября, ср
ср2923:00+24в11825 0.0 101190
02:00+23сз11860 0.0 100946
05:00+22сз01890 0.0 100843
08:00+25юз11730 0.0 1009378
11:00+31ююв22480 0.0 1008831
14:00+31юв32480 0.0 1006967
17:00+28вюв33600 0.0 1006384
20:00+26вюв227317 0.2 1009263
30 сентября, чт
чт3023:00+25в117931 0.1 1010122
02:00+24с118224 0.1 100855
05:00+24зсз118332 0.1 100954
08:00+26з117272 0.1 1010409
11:00+31ююв115738 0.3 10091110
14:00+28юв326952 1.6 1008745
17:00+26юв238298 0.8 1008383
20:00+25вюв2290100 1.8 101090
1 октября, пт
пт123:00+24в228953 0.7 1010110
02:00+24ююв119033 0.9 101063
05:00+23в009110 0.3 101050
08:00+25всв128513 0.4 1012347
11:00+28вюв226645 0.1 10111025
14:00+27юв326723 0.2 1009785
17:00+26вюв337439 0.0 1010651
20:00+24вюв237537 0.0 1012560